Orbital Elements at Epoch 2459200.5 (2020-Dec-17.0) TDB
Reference: JPL 15 (heliocentric ecliptic J2000)
Element | Value | Uncertainty (1-sigma) | Units |
e | .2658955381568623 | 1.6425e-07 | |
a | 2.522723639726164 | 1.109e-08 | au |
q | 1.851942679920137 | 4.1654e-07 | au |
i | 12.64685330727105 | 1.1423e-05 | deg |
node | 127.9945224267872 | 1.6693e-05 | deg |
peri | 171.1625703671332 | 2.6198e-05 | deg |
M | 125.2409538042304 | 1.2081e-05 | deg |
tp | 2458691.348757601092 (2019-Jul-26.84875760) | 4.8695e-05 | TDB |
period | 1463.534424610998 4.01 | 9.6508e-06 2.642e-08 | d yr |
n | .2459798648710887 | 1.622e-09 | deg/d |
Q | 3.19350459953219 | 1.4039e-08 | au |
|
| | Orbit Determination Parameters
Additional Information
|